Погода в Пермском

Россия / Приморский край     43°46′01″N   135°10′30″E
темп.,
°C
ветер,
м/с
пор.,
м/с
влажн.,
%
обл.,
%
осадки,
мм/ч
давл.,
гПа
погр.,
м
16 мая, вс
вс1601:00+12ссз219344 0.0 100726
04:00+13сз2480100 0.0 1008169
07:00+12ссз2172100 0.0 100839
10:00+13сз126839 0.0 1008154
13:00+20ююв3338100 0.0 1005773
16:00+16ююв2349100 0.0 1004303
19:00+15ююз0060100 0.0 100429
22:00+12сз226580 0.0 100423
17 мая, пн
пн1701:00+10сз326535 0.0 100434
04:00+9сз3369100 0.0 100453
07:00+10сз336763 0.0 100585
10:00+20сз2537100 0.0 1004809
13:00+23юв132472 0.0 10042097
16:00+21ю4532100 0.0 1003674
19:00+17ююз3648100 0.0 1004166
22:00+13зсз2253100 0.0 100613
18 мая, вт
вт1801:00+12сз22640 0.0 100624
04:00+11сз32620 0.0 100734
07:00+13сз23570 0.0 100760
10:00+23ююз11330 0.0 1007475
13:00+23ююв33320 0.0 1006735
16:00+21ю373983 0.0 1005375
19:00+15ююв1269100 0.0 100543
22:00+13зсз1175100 0.0 100612
19 мая, ср
ср1901:00+12з1177100 0.0 100612
04:00+11зсз2272100 0.0 100618
07:00+13з1163100 0.0 100743
10:00+22ююз12381 0.0 1006362
13:00+23ю44435 0.0 1006602
16:00+20ю245820 0.6 1006856
19:00+16ю228524 0.9 100854
22:00+14зсз11812 0.9 101011
20 мая, чт
чт2001:00+15сз22801 0.0 101115
04:00+13ссз11832 0.0 101212
07:00+15св138353 0.0 101495
10:00+21в22487 0.0 1014484
13:00+20юв3250100 0.0 1014495
16:00+17юв2257100 0.1 1013285
19:00+11ююв2381100 0.0 1012113
22:00+10св1193100 0.0 101213